This demonstration page uses our WeatherBlox Daily Observations layout. Learn more.

Left ArrowRight Arrow

Hourly Observations for August 16, 2020

Temp ( °F °C ) Dew Point ( °F °C ) Humidity (%) Winds ( mph kmh ) Pressure ( in mb ) Visibility ( mi km ) Precip ( " mm )
12:15 am 00:15 Partly Cloudy 68 20.2 68 19.9 98 98 Calm 29.94 1014 10 16 0.00 0.00
12:35 am 00:35 Clear 68 20 67 19.3 96 96 Calm 29.94 1014 10 16 0.00 0.00
12:55 am 00:55 Clear 68 19.9 67 19.3 96 96 Calm 29.94 1014 10 16 0.00 0.00
1:15 am 01:15 Clear 67 19.4 66 19.1 98 98 Calm 29.94 1014 10 16 0.00 0.00
1:35 am 01:35 Clear 66 18.7 65 18.3 98 98 Calm 29.94 1014 10 16 0.00 0.00
1:55 am 01:55 Clear 67 19.3 67 19.2 99 99 Calm 29.93 1013 10 16 0.00 0.00
2:15 am 02:15 Clear 67 19.6 67 19.2 98 98 W 5 7 29.93 1013 10 16 0.00 0.00
2:35 am 02:35 Clear 69 20.6 67 19.3 92 92 WNW 5 7 29.91 1013 10 16 0.00 0.00
2:55 am 02:55 Clear 69 20.5 66 19 91 91 WNW 3 6 29.91 1013 10 16 0.00 0.00
3:15 am 03:15 Clear 68 20 66 18.9 93 93 WNW 3 6 29.92 1013 10 16 0.00 0.00
3:35 am 03:35 Clear 69 20.4 66 19.1 92 92 WNW 5 7 29.92 1013 10 16 0.00 0.00
3:55 am 03:55 Clear 69 20.4 67 19.2 93 93 NW 6 9 29.93 1013 10 16 0.00 0.00
4:15 am 04:15 Clear 68 20.2 67 19.2 94 94 NW 5 7 29.93 1013 10 16 0.00 0.00
4:35 am 04:35 Clear 68 20 67 19.2 95 95 NW 5 7 29.93 1013 10 16 0.00 0.00
4:55 am 04:55 Mostly Cloudy 68 20 67 19.5 97 97 NW 6 9 29.92 1013 7 11 0.00 0.00
5:15 am 05:15 Cloudy with Mist and Fog 68 20.2 68 19.8 98 98 NNW 6 9 29.92 1013 4 6 0.00 0.00
5:35 am 05:35 Cloudy with Mist and Fog 68 20.2 68 20 99 99 NNW 7 11 29.93 1013 3 5 0.00 0.00
5:55 am 05:55 Cloudy with Mist and Fog 68 20.2 68 20 99 99 NW 6 9 29.93 1013 3 5 0.00 0.00
6:15 am 06:15 Cloudy with Mist and Fog 68 20.2 68 20 99 99 NW 7 11 29.93 1013 3 4 0.00 0.00
6:35 am 06:35 Cloudy with Mist and Fog 69 20.4 68 20 98 98 NW 7 11 29.94 1014 4 6 0.00 0.00
6:55 am 06:55 Cloudy with Mist and Fog 69 20.5 68 20 97 97 NNW 6 9 29.94 1014 4 6 0.00 0.00
7:15 am 07:15 Cloudy with Mist and Fog 69 20.5 68 20 97 97 NW 5 7 29.94 1014 4 6 0.00 0.00
7:35 am 07:35 Cloudy with Mist and Fog 69 20.6 68 20.1 97 97 NW 5 7 29.95 1014 4 6 0.00 0.00
7:55 am 07:55 Cloudy with Mist and Fog 69 20.7 68 20.2 97 97 NW 9 15 29.95 1014 4 6 0.00 0.00
8:15 am 08:15 Cloudy with Mist and Fog 69 20.4 68 19.8 96 96 NW 9 15 29.97 1015 3 5 0.00 0.00
8:35 am 08:35 Cloudy with Mist and Fog 68 20.2 67 19.6 96 96 N 6 9 29.98 1015 4 6 0.00 0.00
8:55 am 08:55 Cloudy with Mist and Fog 69 20.3 67 19.6 96 96 NNW 7 11 29.98 1015 5 8 0.00 0.00
9:15 am 09:15 Cloudy 69 20.8 67 19.6 93 93 NNW 8 13 29.97 1015 10 16 0.00 0.00
9:35 am 09:35 Cloudy 70 21 67 19.5 91 91 NNW 12 19 29.97 1015 10 16 0.00 0.00
9:55 am 09:55 Cloudy 70 21.2 67 19.6 91 91 NNW 12 19 29.98 1015 10 16 0.00 0.00
10:15 am 10:15 Cloudy 71 21.8 67 19.6 87 87 NNW 7 11 29.99 1016 10 16 0.00 0.00
10:35 am 10:35 Cloudy 71 21.8 67 19.4 86 86 NNW 10 17 29.99 1016 10 16 0.00 0.00
10:55 am 10:55 Mostly Cloudy 72 22.2 67 19.5 85 85 NNW 10 17 30.00 1016 10 16 0.00 0.00
11:15 am 11:15 Mostly Cloudy 73 22.7 68 19.8 84 84 NNW 7 11 30.00 1016 10 16 0.00 0.00
11:35 am 11:35 Mostly Cloudy 74 23.2 67 19.5 80 80 NNW 13 20 30.00 1016 10 16 0.00 0.00
11:55 am 11:55 Mostly Cloudy 75 23.7 67 19.7 78 78 NNW 12 19 29.99 1016 10 16 0.00 0.00
12:15 pm 12:15 Partly Cloudy 75 23.8 66 19 75 75 NNW 10 17 29.99 1016 10 16 0.00 0.00
12:35 pm 12:35 Partly Cloudy 76 24.3 67 19.3 74 74 NNW 12 19 29.99 1016 10 16 0.00 0.00
12:55 pm 12:55 Mostly Cloudy 76 24.4 66 19.1 72 72 NNW 13 20 29.99 1016 10 16 0.00 0.00
1:15 pm 13:15 Mostly Cloudy 76 24.7 66 19.1 71 71 NNW 10 17 30.00 1016 10 16 0.00 0.00
1:35 pm 13:35 Mostly Cloudy 76 24.4 67 19.2 73 73 NNW 12 19 30.00 1016 10 16 0.00 0.00
1:55 pm 13:55 Partly Cloudy 77 25.1 67 19.4 71 71 N 12 19 29.99 1016 10 16 0.00 0.00
2:15 pm 14:15 Partly Cloudy 78 25.5 67 19.5 70 70 N 13 20 29.99 1016 10 16 0.00 0.00
2:35 pm 14:35 Partly Cloudy 78 25.5 66 18.9 67 67 NW 10 17 29.99 1016 10 16 0.00 0.00
2:55 pm 14:55 Partly Cloudy 78 25.4 65 18.2 64 64 NNW 8 13 29.99 1016 10 16 0.00 0.00
3:15 pm 15:15 Partly Cloudy 78 25.7 65 18.4 64 64 NNW 12 19 29.98 1015 10 16 0.00 0.00
3:35 pm 15:35 Sunny 78 25.7 63 17.1 59 59 NNW 14 22 29.98 1015 10 16 0.00 0.00
3:55 pm 15:55 Sunny 79 26 63 17.1 58 58 NNW 9 15 29.98 1015 10 16 0.00 0.00
4:15 pm 16:15 Partly Cloudy 79 26.2 66 18.8 64 64 NNW 10 17 29.97 1015 10 16 0.00 0.00
4:35 pm 16:35 Sunny 79 26 64 18 61 61 NW 12 19 29.97 1015 10 16 0.00 0.00
4:55 pm 16:55 Sunny 78 25.8 65 18.3 63 63 NNW 9 15 29.98 1015 10 16 0.00 0.00
5:15 pm 17:15 Sunny 79 26 64 17.5 60 60 NNW 12 19 29.97 1015 10 16 0.00 0.00
5:35 pm 17:35 Sunny 79 26 63 17.3 59 59 NW 8 13 29.98 1015 10 16 0.00 0.00
5:55 pm 17:55 Sunny 78 25.7 63 17.2 59 59 NNW 8 13 29.97 1015 10 16 0.00 0.00
6:15 pm 18:15 Sunny 78 25.6 63 17.4 61 61 NNW 10 17 29.98 1015 10 16 0.00 0.00
6:35 pm 18:35 Sunny 78 25.5 63 17 59 59 NW 8 13 29.97 1015 10 16 0.00 0.00
6:55 pm 18:55 Sunny 77 25.1 62 16.7 60 60 NW 6 9 29.97 1015 10 16 0.00 0.00
7:15 pm 19:15 Sunny 77 24.9 61 15.9 57 57 WNW 6 9 29.97 1015 10 16 0.00 0.00
7:35 pm 19:35 Sunny 76 24.2 62 16.4 62 62 WNW 3 6 29.98 1015 10 16 0.00 0.00
7:55 pm 19:55 Sunny 74 23.1 62 16.9 68 68 NW 5 7 29.99 1015 10 16 0.00 0.00
8:15 pm 20:15 Sunny 73 22.6 62 16.7 69 69 NW 6 9 29.99 1015 10 16 0.00 0.00
8:35 pm 20:35 Sunny 72 22.2 60 15.8 67 67 NW 7 11 30.00 1016 10 16 0.00 0.00
8:55 pm 20:55 Clear 70 21 61 16 73 73 WNW 5 7 30.00 1016 10 16 0.00 0.00
9:15 pm 21:15 Clear 69 20.6 61 16.1 76 76 WNW 3 6 30.00 1016 10 16 0.00 0.00
9:35 pm 21:35 Clear 68 20.2 61 16.1 77 77 W 5 7 30.01 1016 10 16 0.00 0.00
9:55 pm 21:55 Clear 67 19.5 61 16.3 82 82 W 3 6 30.01 1016 10 16 0.00 0.00
10:15 pm 22:15 Clear 65 18.6 62 16.5 88 88 W 5 7 30.02 1017 10 16 0.00 0.00
10:35 pm 22:35 Clear 65 18.5 62 16.5 88 88 WNW 3 6 30.01 1016 10 16 0.00 0.00
10:55 pm 22:55 Clear 64 18 61 16.3 90 90 W 3 6 30.01 1016 10 16 0.00 0.00
11:15 pm 23:15 Clear 64 17.5 61 16.3 93 93 Calm 30.01 1016 10 16 0.00 0.00
11:35 pm 23:35 Clear 61 16.1 60 15.5 96 96 Calm 30.02 1017 10 16 0.00 0.00
11:55 pm 23:55 Clear 63 17.2 61 16 93 93 Calm 30.02 1016 10 16 0.00 0.00

Powered by AerisWeather